Warning: Javascript must be enabled to use all the features on this page!


Page Loading - Please Wait...

Click to hideNews Bulletins

USGS 04189260 Blanchard River at Ottawa OH

PROVISIONAL DATA SUBJECT TO REVISION

Click to hidestation-specific text
Station operated in cooperation with the Village of Ottawa and the National Streamflow Information Program.
 04189260 Blanchard River at Ottawa, OH
 LOCATION.--Lat 41°01'01", long 84°02'49", Putnam County, OH, Hydrologic 
     Unit 04100008, on right bank at downstream side of Oak Street, 200 ft. upstream 
     of B&O railroad bridge, 800 ft. upstream of SR65 bridge, 1,200 ft. southeast of 
     intersection of SR65 and US RT224 in the village of Ottawa, OH.
 DRAINAGE AREA.--628 mi2.
 PERIOD OF RECORD.--October 2009 to current water year.
Want to learn more about areas near this gage that are inundated during flooding? See the USGS flood-inundation mapper.

Boating safety tips
Available Parameters Available Period
All 2 Available Parameters for this site
  
00065 Gage height 2016-01-25  2016-05-24
00060 Discharge 2009-10-01  2016-05-24

Graph
Graph w/ stats
Graph w/o stats
Graph w/ (up to 3) parms
Table
Tab-separated
Days  (7)
 

  -- or --
Begin date
 

End date
 

Summary of all available data for this site
Instantaneous-data availability statement
Gage height, feet
TIMEMay 17May 18May 19May 20May 21May 22May 23May 24
00:00 EDT8.90P  7.70P  7.46P  7.13P  6.98P  6.81P  6.91P  6.70P  
00:30 EDT8.87P  7.69P  7.45P  7.13P  6.98P  6.82P  6.90P  6.69P  
01:00 EDT8.84P  7.68P  7.45P  7.12P  6.97P  6.82P  6.90P  6.68P  
01:30 EDT8.81P  7.66P  7.44P  7.11P  6.97P  6.84P  6.89P  6.68P  
02:00 EDT8.78P  7.65P  7.44P  7.10P  6.96P  6.85P  6.88P  6.67P  
02:30 EDT8.75P  7.64P  7.43P  7.10P  6.96P  6.85P  6.88P  6.67P  
03:00 EDT8.72P  7.63P  7.42P  7.09P  6.96P  6.86P  6.87P  6.66P  
03:30 EDT8.70P  7.62P  7.42P  7.08P  6.96P  6.87P  6.86P  6.66P  
04:00 EDT8.67P  7.61P  7.41P  7.07P  6.96P  6.88P  6.86P  6.65P  
04:30 EDT8.63P  7.60P  7.41P  7.07P  6.98P  6.89P  6.85P  6.65P  
05:00 EDT8.60P  7.59P  7.40P  7.06P  6.98P  6.90P  6.84P  6.65P  
05:30 EDT8.58P  7.59P  7.40P  7.05P  6.98P  6.90P  6.84P  6.64P  
06:00 EDT8.54P  7.58P  7.40P  7.05P  6.97P  6.91P  6.84P  6.64P  
06:30 EDT8.51P  7.58P  7.39P  7.04P  6.97P  6.92P  6.83P  6.63P  
07:00 EDT8.49P  7.57P  7.39P  7.04P  6.96P  6.92P  6.83P  6.62P  
07:30 EDT8.46P  7.57P  7.38P  7.03P  6.96P  6.93P  6.83P  6.62P  
08:00 EDT8.43P  7.56P  7.38P  7.02P  6.95P  6.94P  6.82P  6.61P  
08:30 EDT8.40P  7.56P  7.38P  7.02P  6.94P  6.94P  6.82P  6.60P  
09:00 EDT8.38P  7.56P  7.37P  7.02P  6.94P  6.94P  6.81P  6.60P  
09:30 EDT8.34P  7.57P  7.36P  7.02P  6.93P  6.95P  6.81P  6.59P  
10:00 EDT8.32P  7.56P  7.34P  7.02P  6.92P  6.96P  6.81P  6.57P  
10:30 EDT8.29P  7.55P  7.34P  7.03P  6.91P  6.96P  6.80P  6.56P  
11:00 EDT8.26P  7.56P  7.33P  7.03P  6.90P  6.97P  6.80P  6.55P  
11:30 EDT8.24P  7.56P  7.32P  7.04P  6.89P  6.97P  6.80P  6.54P  
12:00 EDT8.21P  7.56P  7.31P  7.04P  6.88P  6.97P  6.80P  6.53P  
12:30 EDT8.19P  7.57P  7.31P  7.05P  6.87P  6.97P  6.79P  6.52P  
13:00 EDT8.17P  7.56P  7.30P  7.05P  6.86P  6.98P  6.79P  6.51P  
13:30 EDT8.14P  7.57P  7.29P  7.05P  6.85P  6.98P  6.79P  6.50P  
14:00 EDT8.11P  7.56P  7.28P  7.06P  6.83P  6.98P  6.78P  6.49P  
14:30 EDT8.09P  7.56P  7.28P  7.06P  6.82P  6.97P  6.78P  6.47P  
15:00 EDT8.06P  7.56P  7.27P  7.06P  6.81P  6.97P  6.78P  6.46P  
15:30 EDT8.03P  7.56P  7.26P  7.05P  6.80P  6.98P  6.78P  6.45P  
16:00 EDT8.02P  7.55P  7.26P  7.05P  6.80P  6.98P  6.77P  6.43P  
16:30 EDT7.99P  7.55P  7.25P  7.05P  6.78P  6.97P  6.77P  6.42P  
17:00 EDT7.97P  7.55P  7.24P  7.05P  6.78P  6.98P  6.77P  6.41P  
17:30 EDT7.95P  7.54P  7.24P  7.05P  6.78P  6.97P  6.76P  6.40P  
18:00 EDT7.92P  7.54P  7.23P  7.05P  6.77P  6.97P  6.76P  6.39P  
18:30 EDT7.90P  7.53P  7.22P  7.04P  6.76P  6.97P  6.75P  6.37P  
19:00 EDT7.89P  7.52P  7.21P  7.04P  6.77P  6.96P  6.75P  6.36P  
19:30 EDT7.86P  7.52P  7.21P  7.03P  6.76P  6.96P  6.75P  6.35P  
20:00 EDT7.84P  7.51P  7.20P  7.03P  6.77P  6.95P  6.74P  6.34P  
20:30 EDT7.82P  7.51P  7.19P  7.02P  6.76P  6.95P  6.74P  6.33P  
21:00 EDT7.81P  7.50P  7.18P  7.02P  6.77P  6.94P  6.73P   
21:30 EDT7.79P  7.49P  7.17P  7.01P  6.77P  6.94P  6.72P   
22:00 EDT7.77P  7.49P  7.16P  7.01P  6.78P  6.93P  6.72P   
22:30 EDT7.75P  7.48P  7.15P  7.00P  6.79P  6.93P  6.71P   
23:00 EDT7.73P  7.47P  7.15P  6.99P  6.79P  6.92P  6.71P   
23:30 EDT7.72P  7.47P  7.14P  6.99P  6.80P  6.91P  6.70P   
COUNT4848484848484842
MAX8.907.707.467.136.986.986.916.70
MIN7.727.477.146.996.766.816.706.33

Explanation
  P  Provisional data subject to revision.